Location: Brabourne
(51.1333°N, 1.0000°E)
Time: 11:56:15
(UTC+00:00)

ADEOS Rocket - Pass Details

Date: 29 October 2021
Orbit: 858 x 1307 km, 98.8° (Epoch: 26 November)

Event Time Altitude Azimuth Distance (km) Brightness Sun altitude
Exits shadow 22:36:58 11° 16° (NNE) 2,962 5.8 -50.5°
Drops below altitude 10° 22:37:21 10° 13° (NNE) 3,021 5.9 -50.6°
Sets 22:41:06 0° 352° (N) 3,891 6.7 -50.8°
